Regional Weather Roundup
Issued by NWS

Home | Current Version | Previous Version | Text Only | Print | Product List | Glossary On
Versions: 1 2 3 4 5 6 7 8 9 10 11 12 13 14 15 16 17 18 19 20 21 22 23 24 25 26 27 28 29 30 31 32 33 34 35 36 37 38 39 40 41 42 43 44 45 46 47 48 49 50
590
ASUS43 KBIS 160710
RWRND

NORTH DAKOTA REGIONAL WEATHER ROUNDUP
NATIONAL WEATHER SERVICE BISMARCK ND
100 AM CST SAT DEC 16 2017

NOTE: "FAIR" INDICATES FEW OR NO CLOUDS BELOW 12,000 FEET WITH NO
SIGNIFICANT WEATHER AND/OR OBSTRUCTIONS TO VISIBILITY.


NDZ001>003-009>011-017-160800-
NORTHWEST NORTH DAKOTA

CITY           SKY/WX    TMP DP  RH WIND       PRES   REMARKS
WILLISTON        N/A    N/A N/A N/A MISG      29.70R
MINOT          CLOUDY    40  35  83 W16       29.59R
MINOT AFB      CLOUDY    38  34  84 NW15      29.58R
$$

NDZ018>021-031>035-040>046-160800-
SOUTHWEST NORTH DAKOTA

CITY           SKY/WX    TMP DP  RH WIND       PRES   REMARKS
BISMARCK       LGT RAIN  38  34  85 NW7       29.64R
DICKINSON      CLOUDY    36  24  62 NW9       29.66R
GARRISON         N/A     38  36  92 NW12      29.61R
HETTINGER ARPT PTCLDY    32  21  64 NW9       29.68R
$$

NDZ004>008-012>016-024-026-027-054-160800-
NORTHEAST NORTH DAKOTA

CITY           SKY/WX    TMP DP  RH WIND       PRES   REMARKS
GRAND FORKS    CLOUDY    21  19  92 E12       29.65R WCI   9
GRND FRKS AFB  CLOUDY    21  18  90 E6        29.65R WCI  13
DEVILS LAKE    CLOUDY    23  21  92 E9        29.60R WCI  13
$$

NDZ022-023-025-028>030-036>039-047>053-160800-
SOUTHEAST NORTH DAKOTA

CITY           SKY/WX    TMP DP  RH WIND       PRES   REMARKS
FARGO          CLOUDY    29  26  89 E6        29.60R
JAMESTOWN      CLOUDY    35  29  78 NW10      29.57R
$$





USA.gov is the U.S. government's official web portal to all federal, state and local government web resources and services.